STARLINK-5730, 55611

Orbit data source: Space-Track

STARLINK-5730, 55611 is a payload satellite owned by SpaceX/Seattle (US) in LEO that was launched on Sun, 12 Feb 2023 UTC via an FALCON 9 launch vehicle from the Air Force Eastern Test Range (AFETR). Payload-class satellites include a variety of spacecraft equipped with specific instruments for various scientific and technological missions. These include communications satellites like Starlink; space stations such as the ISS; scientific satellites like the Hubble; Earth observation satellites from companies like Planet Labs, Umbra, and HawkEye 360; GPS; miniature CubeSats for education and research; and military/defense satellites.

Loading next visibility...
Identifier
55611, 2023-020AU
Orbit
LEO
Country
Flag of USUS
Related business
Manufacturer
SpaceX/Seattle
Mission
Operational Commercial Communications
Bus & Motor
STARLINK, Unknown motor
Mass
305 kg wet, ~290 kg dry
Launch date (UTC)
2023-02-12 (3 years ago)
Launch vehicle
FALCON 9
Launch site
Air Force Eastern Test Range (AFETR)
Object type
Payload
Rocket body
Debris
Shape & HBR
Box + 1 Pan, 10.1 m
Radar Cross Section
13.562 m², Large (>1 m²)

Expand to show TLE details & history
Last TLE update: 2 days ago

TLE from 2 days ago
0 STARLINK-5730
1 55611U 23020AU  26171.27095338 -.00006031  00000-0 -21034-3 0  9994
2 55611  43.0047 135.2440 0001069 181.9432 178.1416 15.27501457184728
Epoch: 2026-06-20T06:30Z
TLE epoch observation values (Epoch: 2026-06-20T06:30:10.372Z)
Latitude
0.00002°
Longitude
129.21283°
Altitude
483.793 km
Speed
7.625 km/s
True Right ascension
09h 00m 58s
True Declination
0° 00' 00"
Sunlit
Object was in daylight at epoch
Visualization orbit readout
Latitude
Unknown
Longitude
Unknown
Altitude
Unknown
Speed
Unknown
Apparent Right ascension
Unknown
Apparent Declination
Unknown
Sunlit
N/A
Visualization observer readout
Local Sidereal Time
21:52:27
Azimuth
Unknown
Elevation
Unknown
Doppler factor
Unknown
Orbital elements
Apogee altitude
485.962 km
Perigee altitude
484.495 km
Semi-major axis
6,863.366 km
Eccentricity
0.00011
Inclination
43.0047°
RAAN
135.244°
Arg. of periapsis
181.9432°
True anomaly
178.142°
Mean anomaly
178.1416°
Eccentric anomaly
178.1418°
Mean motion
3.81713 °/min
Orbital period
94.31 mins
BSTAR
-0.00021034
Loading maneuver chart data...
Computing Atmospheric mass density...
Loading historical data...
Loading historical data...
Loading historical data...
Loading historical data...
Loading historical data...
Loading historical data...
Loading historical data...

Documentation

Showing up to 5 results
|